Location: Key Biscayne
(25.6930°N, 80.1630°W)
Time: 14:58:16
(UTC-04:00)

Vanguard 3 - All Passes

Search period start: 18 June 2018 00:00
Search period end: 28 June 2018 00:00
Orbit: 508 x 3264 km, 33.3° (Epoch: 18 June)

Date Brightness Start Highest point End Pass type
(mag) Time Alt. Az. Time Alt. Az. Time Alt. Az.
18 Jun - 02:50:29 10° SSW 02:54:33 36° SE 03:00:41 10° ENE visible
18 Jun - 05:00:35 10° W 05:06:27 66° NNW 05:17:07 10° ENE visible
18 Jun - 07:12:17 10° WNW 07:20:54 59° N 07:36:15 10° E daylight
18 Jun - 09:24:23 10° WNW 09:36:44 85° NNE 09:56:15 10° ESE daylight
18 Jun - 11:37:54 10° WNW 11:53:13 54° SW 12:12:20 10° SE daylight
18 Jun - 13:57:02 10° W 14:09:23 21° SW 14:21:52 10° S daylight
19 Jun - 01:39:40 10° SSE 01:41:33 13° SE 01:43:42 10° ESE visible
19 Jun - 03:47:30 10° WSW 03:52:16 88° SSE 04:00:29 10° ENE visible
19 Jun - 05:58:45 10° WNW 06:05:33 54° N 06:17:50 10° ENE visible
19 Jun - 08:10:30 10° WNW 08:20:33 70° NNE 08:37:58 10° E daylight
19 Jun - 10:22:54 10° WNW 10:36:31 71° SSW 10:56:19 10° SE daylight
19 Jun - 12:38:20 10° W 12:52:54 34° SW 13:09:21 10° SSE daylight
20 Jun - 02:34:53 10° SW 02:38:47 44° SE 02:44:34 10° ENE visible
20 Jun - 04:45:23 10° W 04:50:48 58° N 05:00:23 10° ENE visible
20 Jun - 06:56:55 10° WNW 07:04:55 58° N 07:19:19 10° E daylight
20 Jun - 09:08:41 10° WNW 09:20:09 90° SSW 09:39:04 10° ESE daylight
20 Jun - 11:22:04 10° WNW 11:36:16 48° SW 11:54:50 10° SSE daylight
20 Jun - 13:42:12 10° WSW 13:52:35 17° SW 14:03:24 10° S daylight
21 Jun - 01:23:17 10° S 01:25:44 16° SE 01:28:33 10° E night (unlit)
21 Jun - 03:32:13 10° WSW 03:36:40 77° NNW 03:44:02 10° ENE visible
21 Jun - 05:43:32 10° WNW 05:49:49 51° N 06:01:03 10° ENE visible
21 Jun - 07:54:59 10° WNW 08:04:18 73° NNE 08:20:55 10° ESE daylight
21 Jun - 10:07:10 10° WNW 10:19:46 64° SSW 10:38:54 10° SE daylight
21 Jun - 12:22:50 10° W 12:36:01 29° SW 12:51:27 10° SSE daylight
22 Jun - 02:19:21 10° SW 02:23:08 55° SSE 02:28:31 10° ENE visible
22 Jun - 04:30:13 10° W 04:35:14 50° N 04:43:46 10° ENE visible
22 Jun - 06:41:34 10° WNW 06:48:59 58° NNE 07:02:26 10° E daylight
22 Jun - 08:53:04 10° WNW 09:03:40 83° SSW 09:21:46 10° ESE daylight
22 Jun - 11:06:25 10° W 11:19:27 42° SW 11:37:06 10° SSE daylight
22 Jun - 13:28:18 10° WSW 13:35:57 14° SW 13:44:00 10° SSW daylight
23 Jun - 01:07:09 10° SSW 01:10:00 21° SE 01:13:13 10° E night (unlit)
23 Jun - 03:16:58 10° W 03:21:09 63° NNW 03:27:41 10° ENE visible
23 Jun - 05:28:20 10° WNW 05:34:08 48° N 05:44:21 10° ENE visible
23 Jun - 07:39:29 10° WNW 07:48:07 77° NNE 08:03:49 10° ESE daylight
23 Jun - 09:51:31 10° WNW 10:03:08 57° SSW 10:21:17 10° SE daylight
23 Jun - 12:07:40 10° W 12:19:17 24° SW 12:33:10 10° S daylight
24 Jun - 02:03:52 10° WSW 02:07:34 72° SSE 02:12:33 10° ENE visible
24 Jun - 04:15:05 10° WNW 04:19:42 44° N 04:27:17 10° ENE visible
24 Jun - 06:26:14 10° WNW 06:33:06 60° NNE 06:45:36 10° E daylight
24 Jun - 08:37:30 10° WNW 08:47:16 75° SSW 09:04:22 10° SE daylight
24 Jun - 10:50:59 10° W 11:02:48 35° SSW 11:19:08 10° SSE daylight
24 Jun - 13:17:56 10° SW 13:19:31 10° SW 13:21:08 10° SSW daylight
25 Jun - 00:51:09 10° SSW 00:54:21 28° SSE 00:57:49 10° E night (unlit)
25 Jun - 03:01:45 10° W 03:05:40 51° NNW 03:11:27 10° ENE visible
25 Jun - 05:13:06 10° WNW 05:18:30 46° N 05:27:46 10° E visible
25 Jun - 07:24:02 10° WNW 07:32:00 83° NNE 07:46:43 10° ESE daylight
25 Jun - 09:36:01 10° W 09:46:39 49° SSW 10:03:32 10° SE daylight
25 Jun - 11:52:59 10° WSW 12:02:45 19° SW 12:14:24 10° S daylight
25 Jun - 23:39:50 10° SSE 23:41:00 11° SSE 23:42:08 10° SE night (unlit)
26 Jun - 01:48:25 10° WSW 01:52:04 86° NNW 01:56:38 10° ENE visible
26 Jun - 03:59:57 10° WNW 04:04:14 39° N 04:10:55 10° ENE visible
26 Jun - 06:10:55 10° WNW 06:17:15 62° NNE 06:28:49 10° E daylight
26 Jun - 08:22:01 10° WNW 08:31:00 66° SSW 08:46:54 10° SE daylight
26 Jun - 10:35:47 10° W 10:46:20 29° SSW 11:00:54 10° SSE daylight
27 Jun - 00:35:14 10° SW 00:38:48 39° SSE 00:42:22 10° E night (unlit)
27 Jun - 02:46:34 10° W 02:50:15 42° N 02:55:19 10° ENE visible
27 Jun - 04:57:53 10° WNW 05:02:53 45° NNE 05:11:18 10° E visible
27 Jun - 07:08:37 10° WNW 07:15:57 89° SSW 07:29:36 10° ESE daylight
27 Jun - 09:20:40 10° W 09:30:19 41° SSW 09:45:38 10° SSE daylight
27 Jun - 11:39:06 10° WSW 11:46:24 15° SW 11:54:52 10° S daylight
27 Jun - 23:22:35 10° SSW 23:25:24 17° SSE 23:27:55 10° ESE night (unlit)
